Notices

What's New in latest Release from April 7th, 2021:

- Updated Glossary, including Speed of Maximum Gust, and Total Hourly Precipitation

- Updated national and regional climate services offices contacts and prices information

- Addition of station inventory lists for 1981-2010, 1971-2000, and 1961-1990 Normals.

Please note that as of June 10, 2021 UTC dates are available for all years 2004-present, and DBA is working on populating the remaining years (2003 to 1953).

If you haven't already, please take our survey and provide feedback about our website: https://eccc.sondage-survey.ca/f/LanguageSelection.aspx?s=442ca660-fcf1-47c0-95a9-59707d6fd709

Hourly Data Report for April 22, 2018

CLYDE RIVER A
NUNAVUT
Current Station Operator: NAVCAN

70°29'09.000" N
68°31'01.000" W
26.50 m
2400804
71090
YCY

Download Data

Hourly Data (April 2018)
Hourly Data Report for April 22, 2018
TIME
LST
Temp Definition
°C
Dew Point Definition
°C
Rel Hum Definition
%
Precip. Amount Definition
mm

Wind Dir Definition
10's deg

Wind Spd Definition
km/h
Visibility Definition
km
Stn Press Definition
kPa
Hmdx Definition


Wind Chill Definition


Weather Definition


00:00 -1.6 -5.5 75 0.0 22 28 16.1 100.48   -8 LegendNANA
01:00 -3.1 -6.9 75 0.0 21 5 16.1 100.41   -5 LegendNANA
02:00 -4.8 -8.6 75 0.0 13 13 16.1 100.33   -10 LegendNANA
03:00 -5.5 -8.9 77 0.0 12 17 16.1 100.25   -12 LegendNANA
04:00 -6.8 -10.1 78 0.0 12 13 16.1 100.20   -12 LegendNANA
05:00 -8.3 -10.8 82 0.0 9 15 16.1 100.13   -15 LegendNANA
06:00 -7.4 -9.0 88 0.0 17 9 16.1 100.03   -12 LegendNANA
07:00 -3.5 -6.4 80 0.0 32 5 16.1 99.95   -6 LegendNANA
08:00 -6.6 -8.4 87 0.0 9 9 16.1 99.89   -11 LegendNANA
09:00 -3.9 -6.4 83 0.0 1 11 16.1 99.83   -8 LegendNANA
10:00 -3.5 -5.8 84 0.0 35 26 16.1 99.81   -11 Snow
11:00 -4.0 -5.7 88 0.0 36 18 16.1 99.78   -10 Snow
12:00 -2.9 -4.5 89 0.0 36 17 16.1 99.79   -8 LegendNANA
13:00 -2.4 -4.7 84 0.0 34 24 16.1 99.78   -9 LegendNANA
14:00 -2.5 -4.2 88 0.0 33 24 16.1 99.79   -9 LegendNANA
15:00 -3.4 -5.1 88 0.0 33 28 16.1 99.80   -11 LegendNANA
16:00 -3.6 -5.2 89 0.0 34 24 12.9 99.81   -10 LegendNANA
17:00 -4.2 -5.5 91 0.0 34 18 1.6 99.84   -10 Snow
18:00 -4.7 -5.9 91 0.0 34 13 16.1 99.86   -10 LegendNANA
19:00 -5.0 -6.3 91 0.0 34 15 16.1 99.86   -11 LegendNANA
20:00 -5.4 -6.4 93 0.0 28 9 16.1 99.86   -9 Snow
21:00 -5.5 -6.6 92 0.0 25 5 16.1 99.83   -8 Snow
22:00 -5.5 -6.7 91 0.0 27 5 16.1 99.81   -8 Snow
23:00 -5.9 -7.0 92 0.0 32 11 16.1 99.78   -11 Snow

Notes on Data Quality.

Legend

  • E = Estimated
  • M = Missing
  • NA = Not Available*
  • [empty] = Indicates an unobserved value
Date modified: